Location: Atherton
(17.2661°S, 145.4859°E)
Time: 23:24:47
(UTC+10:00)

BlueWalker 3 - Pass Details

Date: 23 April 2026
Orbit: 447 x 458 km, 53.2° (Epoch: 11 May)

Event Time Altitude Azimuth Distance (km) Brightness Sun altitude
Exits shadow 05:24:06 33° 287° (WNW) 780 2.4 -16.0°
Maximum altitude 05:24:31 34° 304° (WNW) 757 2.4 -15.9°
Drops below altitude 10° 05:27:45 10° 10° (N) 1,562 4.7 -15.1°
Sets 05:29:58 0° 20° (NNE) 2,426 5.8 -14.6°
